Location: Newark
(18.4314°N, 64.6231°W)
Time: 17:59:40
(UTC+00:00)

OTV 5 (USA 277) - Pass Details

Date: 30 July 2019
Orbit: 305 x 329 km, 54.5° (Epoch: 20 August)

Event Time Altitude Azimuth Distance (km) Brightness Sun altitude
Exits shadow 09:21:25 11° 269° (W) 1,143 ? -8.4°
Maximum altitude 09:23:02 16° 308° (NW) 902 ? -8.0°
Drops below altitude 10° 09:24:47 10° 351° (N) 1,176 ? -7.6°
Sets 09:27:10 0° 14° (NNE) 1,999 ? -7.1°
